This is the latest recevied weather packets stored in our database for station/object NY3Q. If no packets are shown the sender has not sent any weather packets the latest 10 day(s).
| Time | Temp. | Humidity | Pressure | Rain* | Wind** | Luminosity | Snow |
|---|---|---|---|---|---|---|---|
| 1777507921 | 26.67° C | 70% | 1010 hPa | 0 mm | - | 0 W/m² | - |
| 1777507618 | 26.67° C | 70% | 1010.1 hPa | 0 mm | - | 1 W/m² | - |
| 1777507315 | 26.67° C | 70% | 1010.2 hPa | 0 mm | - | 1 W/m² | - |
| 1777507012 | 26.67° C | 70% | 1009.9 hPa | 0 mm | - | 2 W/m² | - |
| 1777506709 | 26.67° C | 69% | 1010 hPa | 0 mm | - | 4 W/m² | - |
| 1777506406 | 27.22° C | 69% | 1009.6 hPa | 0 mm | - | 8 W/m² | - |
| 1777506102 | 27.22° C | 68% | 1009.9 hPa | 0 mm | - | 12 W/m² | - |
| 1777505797 | 27.78° C | 68% | 1009.8 hPa | 0 mm | - | 14 W/m² | - |
| 1777505495 | 27.78° C | 67% | 1009.8 hPa | 0 mm | - | 20 W/m² | - |
| 1777505191 | 28.33° C | 66% | 1009.6 hPa | 0 mm | - | 27 W/m² | - |
| 1777504888 | 28.33° C | 66% | 1009.7 hPa | 0 mm | - | 34 W/m² | - |
| 1777504585 | 28.33° C | 65% | 1009.8 hPa | 0 mm | - | 34 W/m² | - |
| 1777504280 | 28.33° C | 65% | 1009.7 hPa | 0 mm | - | 49 W/m² | - |
| 1777503976 | 28.89° C | 64% | 1009.7 hPa | 0 mm | - | 34 W/m² | - |
| 1777503674 | 28.89° C | 63% | 1009.9 hPa | 0 mm | - | 47 W/m² | - |
| 1777503370 | 29.44° C | 63% | 1009.5 hPa | 0 mm | - | 54 W/m² | - |
| 1777503066 | 29.44° C | 62% | 1009.7 hPa | 0 mm | - | 60 W/m² | - |
| 1777502764 | 30° C | 60% | 1009.6 hPa | 0 mm | - | 113 W/m² | - |
| 1777502460 | 30° C | 59% | 1009.7 hPa | 0 mm | - | 90 W/m² | - |
| 1777502157 | 30.56° C | 57% | 1009.7 hPa | 0 mm | - | 99 W/m² | - |
| 1777501855 | 31.11° C | 56% | 1009.6 hPa | 0 mm | - | 159 W/m² | - |
| 1777501552 | 31.11° C | 55% | 1009.6 hPa | 0 mm | - | 138 W/m² | - |
| 1777501249 | 31.67° C | 52% | 1009.5 hPa | 0 mm | - | 65 W/m² | - |
| 1777500947 | 32.22° C | 42% | 1009.5 hPa | 0 mm | - | 63 W/m² | - |
| 1777500644 | 32.22° C | 42% | 1009.4 hPa | 0 mm | - | 84 W/m² | - |
* Rain latest hour (hover to see other rain measurements)
** Current wind speed in m/s (hover to see current wind gust speed)